Date String (YYYY-MM-DD hh:mm:ss) UTC,Instrument flags,absolute air pressure of the measurement (hPa),sample flow rate (lpm),inlet stack bypass flow (lpm),air temperature of the measurement (°C),ambient temperature measured by the external sensor (°C),aerosol sample conditioner tube jacket temperature (°C),OPC LED temperature (°C),internal box temperature (°C),relative humidity of the measurement (%),span deviation,mass concentration of particles derived from Lorenz-Mie calculation of OPC scattering (μg/m³),mass concentration of particles derived from Lorenz-Mie calculation of OPC scattering (μg/m³),mass concentration of particles derived from Lorenz-Mie calculation of OPC scattering (μg/m³)
DateTimeUTC,F1_M11,P_M11,Q1_M11,Q2_M11,T1_M11,T2_M11,T3_M11,T4_M11,T5_M11,U1_M11,ZSPAN_M11,X0_M11,X2_M11,X1_M11
2024-03-03 06:00:00,SystemResetWarning,0811.1,5.01,000.00,022.2,021.4,000.0,030.7,024.1,21.0,0000.0,0013.38,0003.06,0000.74
2024-03-03 06:01:00,SystemResetWarning,0811.0,5.01,000.00,022.2,021.4,000.0,030.7,024.1,21.0,0000.0,0013.39,0003.11,0000.76
2024-03-03 06:02:00,SystemResetWarning,0811.1,4.99,000.00,022.2,021.4,000.0,030.7,024.1,21.0,0000.0,0012.76,0003.12,0000.76
2024-03-03 06:03:00,SystemResetWarning,0811.1,4.99,000.00,022.2,021.3,000.0,030.7,024.1,21.0,0000.0,0011.66,0003.03,0000.75
2024-03-03 06:04:00,SystemResetWarning,0811.1,5.00,000.00,022.2,021.4,000.0,030.7,024.1,21.0,0000.0,0010.78,0002.78,0000.74
2024-03-03 06:05:00,SystemResetWarning,0811.2,5.00,000.00,022.2,021.4,000.0,030.8,024.1,21.0,0000.0,0010.81,0002.75,0000.76
2024-03-03 06:06:00,SystemResetWarning,0811.1,5.01,000.00,022.2,021.4,000.0,030.8,024.1,21.0,0000.0,0010.60,0002.83,0000.76
2024-03-03 06:07:00,SystemResetWarning,0811.1,5.00,000.00,022.2,021.4,000.0,030.8,024.1,21.1,0000.0,0010.26,0002.86,0000.75
2024-03-03 06:08:00,SystemResetWarning,0811.2,5.00,000.00,022.2,021.4,000.0,030.8,024.1,21.1,0000.0,0009.15,0002.86,0000.76
2024-03-03 06:09:00,SystemResetWarning,0811.2,4.99,000.00,022.2,021.4,000.0,030.8,024.1,21.1,0000.0,0008.85,0002.76,0000.76
2024-03-03 06:10:00,SystemResetWarning,0811.2,4.99,000.00,022.2,021.4,000.0,030.7,024.1,21.1,0000.0,0009.10,0002.81,0000.76
2024-03-03 06:11:00,SystemResetWarning,0811.2,5.00,000.00,022.2,021.4,000.0,030.7,024.1,21.1,0000.0,0009.19,0002.83,0000.77
2024-03-03 06:12:00,SystemResetWarning,0811.2,5.01,000.00,022.2,021.4,000.0,030.7,024.1,21.1,0000.0,0008.98,0002.81,0000.77
2024-03-03 06:13:00,SystemResetWarning,0811.1,4.99,000.00,022.2,021.3,000.0,030.7,024.1,21.1,0000.0,0009.23,0002.90,0000.79
2024-03-03 06:14:00,SystemResetWarning,0811.2,4.99,000.00,022.2,021.3,000.0,030.7,024.1,21.1,0000.0,0009.92,0003.05,0000.81
2024-03-03 06:15:00,SystemResetWarning,0811.2,5.01,000.00,022.2,021.3,000.0,030.7,024.1,21.1,0000.0,0010.17,0003.16,0000.82
2024-03-03 06:16:00,SystemResetWarning,0811.3,5.00,000.00,022.2,021.4,000.0,030.7,024.1,21.1,0000.0,0010.23,0003.23,0000.83
2024-03-03 06:17:00,SystemResetWarning,0811.2,5.01,000.00,022.2,021.3,000.0,030.7,024.1,21.2,0000.0,0010.45,0003.24,0000.84
2024-03-03 06:18:00,SystemResetWarning,0811.2,5.00,000.00,022.2,021.3,000.0,030.7,024.0,21.2,0000.0,0010.59,0003.26,0000.84
2024-03-03 06:19:00,SystemResetWarning,0811.2,5.00,000.00,022.2,021.3,000.0,030.7,024.0,21.2,0000.0,0011.26,0003.30,0000.84
2024-03-03 06:20:00,SystemResetWarning,0811.1,5.00,000.00,022.2,021.3,000.0,030.7,024.0,21.2,0000.0,0011.22,0003.34,0000.84
2024-03-03 06:21:00,SystemResetWarning,0811.1,5.00,000.00,022.2,021.3,000.0,030.7,024.0,21.3,0000.0,0011.29,0003.31,0000.84
2024-03-03 06:22:00,SystemResetWarning,0811.1,5.00,000.00,022.2,021.3,000.0,030.7,024.0,21.2,0000.0,0012.11,0003.31,0000.83
2024-03-03 06:23:00,SystemResetWarning,0811.1,5.00,000.00,022.2,021.3,000.0,030.7,024.0,21.2,0000.0,0012.42,0003.33,0000.84
2024-03-03 06:24:00,SystemResetWarning,0811.2,5.00,000.00,022.2,021.3,000.0,030.7,024.0,21.1,0000.0,0012.88,0003.30,0000.84
2024-03-03 06:25:00,SystemResetWarning,0811.1,5.00,000.00,022.2,021.3,000.0,030.7,024.0,21.0,0000.0,0012.35,0003.26,0000.83
2024-03-03 06:26:00,SystemResetWarning,0811.2,5.00,000.00,022.2,021.3,000.0,030.7,024.0,21.0,0000.0,0012.70,0003.24,0000.83
2024-03-03 06:27:00,SystemResetWarning,0811.2,5.00,000.00,022.2,021.3,000.0,030.7,024.0,21.1,0000.0,0012.72,0003.16,0000.83
2024-03-03 06:28:00,SystemResetWarning,0811.3,5.00,000.00,022.2,021.3,000.0,030.7,024.0,21.1,0000.0,0012.56,0003.14,0000.83
2024-03-03 06:29:00,SystemResetWarning,0811.3,5.00,000.00,022.2,021.3,000.0,030.7,024.0,21.1,0000.0,0012.35,0003.13,0000.83
2024-03-03 06:30:00,SystemResetWarning,0811.3,5.00,000.00,022.2,021.3,000.0,030.7,024.0,21.0,0000.0,0011.81,0003.14,0000.83
2024-03-03 06:31:00,SystemResetWarning,0811.1,5.00,000.00,022.2,021.3,000.0,030.7,024.0,20.9,0000.0,0011.69,0003.13,0000.83
2024-03-03 06:32:00,SystemResetWarning,0811.1,4.99,000.00,022.2,021.3,000.0,030.7,024.0,20.9,0000.0,0011.91,0003.10,0000.84
2024-03-03 06:33:00,SystemResetWarning,0811.0,4.99,000.00,022.2,021.3,000.0,030.7,024.0,21.0,0000.0,0011.51,0002.99,0000.83
2024-03-03 06:34:00,SystemResetWarning,0811.1,5.00,000.00,022.2,021.3,000.0,030.7,024.0,21.0,0000.0,0011.23,0002.98,0000.84
2024-03-03 06:35:00,SystemResetWarning,0811.1,5.01,000.00,022.2,021.4,000.0,030.7,024.0,20.8,0000.0,0010.71,0002.99,0000.85
2024-03-03 06:36:00,SystemResetWarning,0811.0,5.00,000.00,022.2,021.4,000.0,030.7,024.0,20.6,0000.0,0010.80,0002.92,0000.85
2024-03-03 06:37:00,SystemResetWarning,0811.0,5.00,000.00,022.2,021.3,000.0,030.7,024.0,20.7,0000.0,0010.65,0002.84,0000.84
2024-03-03 06:38:00,SystemResetWarning,0811.1,5.00,000.00,022.2,021.3,000.0,030.7,024.0,20.8,0000.0,0011.30,0002.95,0000.83
2024-03-03 06:39:00,SystemResetWarning,0811.1,4.99,000.00,022.2,021.4,000.0,030.7,024.0,20.9,0000.0,0011.09,0003.06,0000.83
2024-03-03 06:40:00,SystemResetWarning,0811.1,5.00,000.00,022.2,021.3,000.0,030.7,024.0,21.1,0000.0,0011.56,0003.11,0000.84
2024-03-03 06:41:00,SystemResetWarning,0811.0,5.00,000.00,022.2,021.3,000.0,030.7,024.0,21.1,0000.0,0012.00,0003.10,0000.85
2024-03-03 06:42:00,SystemResetWarning,0811.1,5.00,000.00,022.1,021.3,000.0,030.7,024.0,21.1,0000.0,0011.95,0003.10,0000.86
2024-03-03 06:43:00,SystemResetWarning,0811.0,5.00,000.00,022.1,021.3,000.0,030.7,024.0,21.0,0000.0,0011.55,0003.14,0000.86
2024-03-03 06:44:00,SystemResetWarning,0810.9,5.00,000.00,022.1,021.3,000.0,030.7,023.9,20.9,0000.0,0011.17,0003.18,0000.86
2024-03-03 06:45:00,SystemResetWarning,0810.8,5.00,000.00,022.1,021.3,000.0,030.7,023.9,20.9,0000.0,0011.36,0003.20,0000.85
2024-03-03 06:46:00,SystemResetWarning,0810.8,5.00,000.00,022.1,021.3,000.0,030.7,023.9,20.9,0000.0,0011.16,0003.16,0000.84
2024-03-03 06:47:00,SystemResetWarning,0810.8,5.00,000.00,022.1,021.3,000.0,030.7,024.0,20.9,0000.0,0010.75,0003.20,0000.86
2024-03-03 06:48:00,SystemResetWarning,0810.8,5.00,000.00,022.1,021.3,000.0,030.6,023.9,20.7,0000.0,0010.57,0003.23,0000.86
2024-03-03 06:49:00,SystemResetWarning,0810.8,5.01,000.00,022.1,021.3,000.0,030.6,023.9,20.8,0000.0,0009.77,0003.26,0000.88
2024-03-03 06:50:00,SystemResetWarning,0810.7,5.01,000.00,022.1,021.3,000.0,030.6,023.9,20.7,0000.0,0009.96,0003.21,0000.89
2024-03-03 06:51:00,SystemResetWarning,0810.7,5.00,000.00,022.1,021.2,000.0,030.6,023.9,20.6,0000.0,0009.86,0003.20,0000.87
2024-03-03 06:52:00,SystemResetWarning,0810.7,4.99,000.00,022.1,021.2,000.0,030.6,023.9,20.4,0000.0,0009.48,0003.18,0000.86
2024-03-03 06:53:00,SystemResetWarning,0810.8,4.99,000.00,022.1,021.2,000.0,030.6,023.9,20.4,0000.0,0009.36,0003.19,0000.85
2024-03-03 06:54:00,SystemResetWarning,0810.8,5.00,000.00,022.1,021.2,000.0,030.6,023.9,20.3,0000.0,0009.57,0003.19,0000.83
2024-03-03 06:55:00,SystemResetWarning,0811.0,4.99,000.00,022.0,021.2,000.0,030.6,023.8,20.2,0000.0,0009.33,0003.17,0000.84
2024-03-03 06:56:00,SystemResetWarning,0811.1,5.00,000.00,022.0,021.2,000.0,030.6,023.8,20.1,0000.0,0009.15,0003.20,0000.86
2024-03-03 06:57:00,SystemResetWarning,0811.2,5.01,000.00,022.0,021.2,000.0,030.6,023.8,20.2,0000.0,0009.01,0003.19,0000.86
2024-03-03 06:58:00,SystemResetWarning,0811.2,5.01,000.00,022.0,021.2,000.0,030.6,023.8,20.3,0000.0,0009.78,0003.21,0000.84
2024-03-03 06:59:00,SystemResetWarning,0811.1,5.01,000.00,022.0,021.1,000.0,030.5,023.8,20.4,0000.0,0010.08,0003.20,0000.85
